Niagara Falls, NY

10:49 AM EST on February 08, 2016 (GMT -0500)
Niagara Falls International

Weather History for KIAG - March, 2013

Change the Weather History Date:

Sunday, March 10, 2013

  Actual Average Record
Temperature  
Mean Temperature 48 °F -  
Max Temperature 63 °F 34 °F 64 °F (2008)
Min Temperature 34 °F 20 °F 8 °F (2003)
Degree Days  
Heating Degree Days 16    
Moisture  
Dew Point 28 °F    
Average Humidity 45    
Maximum Humidity 75    
Minimum Humidity 33    
Precipitation  
Precipitation 0.00 in - - ()
Sea Level Pressure  
Sea Level Pressure 30.05 in    
Wind  
Wind Speed 6 mph (South)    
Max Wind Speed 17 mph    
Max Gust Speed 24 mph    
Visibility 10 miles    
Events      
Averages and records for this station are not official NWS values.
T = Trace of Precipitation, MM = Missing Value Source: NWS Daily Summary

Daily Weather History Graph

Daily Weather History Graph

Search for Another Location

Airport or City:

Trip Planner

Search our weather history database for the weather conditions in past years. The results will help you decide how hot, cold, wet, or windy it might be!

Date:

Astronomy

Mar. 10, 2013 Rise Set
Actual Time 7:36 AM EDT 7:16 PM EDT
Civil Twilight 7:07 AM EDT 7:44 PM EDT
Nautical Twilight 6:35 AM EDT 8:17 PM EDT
Astronomical Twilight 6:01 AM EDT 8:51 PM EDT
Moon 6:36 AM EDT (3/10) 6:22 PM EDT (3/10)
Length of Visible Light 12h 36m
Length of Day
11h 40m
Waning Crescent, 2% of the Moon is Illuminated
Mar 10
Waning Crescent
Mar 11
New
Mar 19
First Quarter
Mar 27
Full
Apr 3
Last Quarter

Hourly Weather History & Observations

Time (EDT) Temp. Windchill Dew Point Humidity Pressure Visibility Wind Dir Wind Speed Gust Speed Precip Events Conditions
12:53 AM 34.0 °F - 27.0 °F 75% 30.19 in 10.0 mi Calm Calm - N/A   Clear
1:53 AM 36.0 °F 33.3 °F 26.1 °F 67% 30.18 in 10.0 mi ESE 3.5 mph - N/A   Clear
3:53 AM 36.0 °F 32.1 °F 26.1 °F 67% 30.14 in 10.0 mi SE 4.6 mph - N/A   Clear
4:53 AM 37.9 °F - 25.0 °F 60% 30.13 in 10.0 mi Calm Calm - N/A   Overcast
5:53 AM 37.9 °F 35.5 °F 27.0 °F 65% 30.12 in 10.0 mi SSE 3.5 mph - N/A   Overcast
6:53 AM 41.0 °F 39.0 °F 25.0 °F 53% 30.10 in 10.0 mi South 3.5 mph - N/A   Partly Cloudy
7:02 AM 42.8 °F 40.1 °F 23.0 °F 46% 30.07 in 10.0 mi South 4.6 mph - N/A   Mostly Cloudy
7:53 AM 42.8 °F 41.1 °F 23.0 °F 46% 30.06 in 10.0 mi South 3.5 mph - N/A   Mostly Cloudy
8:53 AM 46.0 °F 40.2 °F 23.0 °F 40% 30.09 in 10.0 mi South 12.7 mph - N/A   Mostly Cloudy
9:53 AM 46.9 °F - 24.1 °F 41% 30.11 in 10.0 mi SSW 9.2 mph - N/A   Mostly Cloudy
10:53 AM 52.0 °F - 24.1 °F 34% 30.08 in 10.0 mi South 13.8 mph - N/A   Mostly Cloudy
11:53 AM 55.0 °F - 27.0 °F 34% 30.08 in 10.0 mi SSW 12.7 mph - N/A   Mostly Cloudy
12:53 PM 57.0 °F - 28.9 °F 34% 30.06 in 10.0 mi SSW 15.0 mph 23.0 mph N/A   Mostly Cloudy
1:53 PM 59.0 °F - 30.9 °F 35% 30.04 in 10.0 mi SW 17.3 mph - N/A   Mostly Cloudy
2:53 PM 61.0 °F - 32.0 °F 34% 30.00 in 10.0 mi SSW 17.3 mph 24.2 mph N/A   Mostly Cloudy
3:53 PM 63.0 °F - 33.1 °F 33% 29.96 in 10.0 mi South 15.0 mph - N/A   Mostly Cloudy
4:53 PM 61.0 °F - 33.1 °F 35% 29.97 in 10.0 mi SSW 9.2 mph - N/A   Overcast
5:53 PM 61.0 °F - 32.0 °F 34% 29.96 in 10.0 mi Calm Calm - N/A   Overcast
6:53 PM 55.9 °F - 34.0 °F 44% 29.99 in 10.0 mi SSW 5.8 mph - N/A   Overcast
7:53 PM 55.0 °F - 30.9 °F 40% 29.99 in 10.0 mi South 6.9 mph - N/A   Mostly Cloudy
8:53 PM 55.0 °F - 30.0 °F 38% 29.99 in 10.0 mi South 11.5 mph - N/A   Mostly Cloudy
9:53 PM 54.0 °F - 28.9 °F 38% 29.99 in 10.0 mi South 8.1 mph - N/A   Overcast
10:53 PM 53.1 °F - 28.9 °F 40% 29.96 in 10.0 mi South 10.4 mph - N/A   Mostly Cloudy
11:53 PM 53.1 °F - 28.9 °F 40% 29.94 in 10.0 mi South 9.2 mph - N/A   Clear
12:53 AM 52.0 °F - 28.9 °F 41% 29.94 in 10.0 mi South 9.2 mph - N/A   Clear